星链-3828 (STARLINK-3828 )

导读

STARLINK-3828是美国太空探索技术公司(SpaceX)星链星座的卫星,于2022年5月6日发射升空,属于星链互联网卫星组网计划的组成部分。星链系统旨在通过近地轨道卫星群,为全球提供高速低延迟的互联网接入服务,该卫星进一步扩充了星链星座的服务覆盖能力。

基本信息
目录编号:
52469
目录名称:
STARLINK-3828
国际标识:
2022-049U
轨道中心:
EARTH
卫星名称:
星链-3828
卫星全名:
星链-3828 (STARLINK-3828 )
卫星状态:
在轨 (已飞行1582 天)
发射日期:
2022-05-06 UTC
国别 :
美国 (US)
星等 :
--
轨道信息
数据来源 国际轨道数据
星历时间: 2026-09-01T21:03:46+0800
2天前
查看轨道信息
半长轴: 6843.379km
偏心率: 0.0001177
轨道倾角: 53.161°
近地点辐角 83.741°
升交点赤经 342.336°
平近点角 276.372°
近地点: 464.436km
远地点: 466.048km
周期: 93.900分钟
每日圈数: 15.335464
详细信息
固有亮度:
5
最大亮度:
2.5
卫星平台:
Starlink v1.5
覆盖范围:
全球
运营商:
太空探索技术公司
运营商所在国:
美国
制造商(研发单位):
太空探索技术公司
制造商所在国:
美国
使用方式:
暂无
卫星简介
星链(Starlink)计划是由太空探索技术公司(SpaceX)提出的一个巨型低轨卫星互联网星座项目,计划在2019年至2024年间在太空搭建由约1.2万颗卫星组成的“星链”网络,其中1584颗将部署在地球上空550千米处的近地轨道,并从2020年开始工作。该卫星仍在工作。
2D轨道图
3D轨道图
轨道高度分析图
轨道倾角分析图
轨道综合分析图
查看轨道综合分析图
交会数据列表
事件ID 空间交会对象 最接近时刻(TCA) 交会距离 交会风险概率(CRP) 交会风险指数(CRI) 操作
CDM_260830-081905-246906-934021
2026-08-30T
08:19:15+0000
1.448 km
极远距离
5.988898E-6 低风险 0.51
CDM_260903-184405-246906-874421
2026-09-03T
18:44:54+0000
1.972 km
极远距离
2.853754E-6 低风险 0.44
CDM_260903-083605-246906-868621
2026-09-03T
08:36:16+0000
2.298 km
极远距离
2.007116E-6 低风险 0.41
CDM_260904-074505-246906-788322
2026-09-04T
07:45:18+0000
2.446 km
极远距离
1.791515E-6 低风险 0.4
CDM_260903-034605-246906-781321
2026-09-03T
03:46:10+0000
2.349 km
极远距离
1.719665E-6 低风险 0.4
CDM_260828-142605-246906-897821
2026-08-28T
14:26:21+0000
2.464 km
极远距离
1.609202E-6 低风险 0.39
CDM_260903-211305-246906-640121
2026-09-03T
21:13:04+0000
2.555 km
极远距离
1.43814E-6 低风险 0.38
CDM_260903-061605-246906-822623
2026-09-03T
06:16:23+0000
2.793 km
极远距离
1.436453E-6 低风险 0.38
CDM_260903-035505-246906-822622
2026-09-03T
03:55:29+0000
2.837 km
极远距离
1.403007E-6 低风险 0.38
CDM_260904-151005-246905-368022
2026-09-04T
15:10:40+0000
2.871 km
极远距离
1.399251E-6 低风险 0.38